| time (UTC) | temp F | wind direction | speed MPH | gust MPH | rain 1hr in | rain 24hr in | rain mn in | humidity % | barometer mb |
| 20260510191857 | 67 | 0 | 5.0 | 5.0 | 0.00 | 0.00 | 0.00 | 34 | 1017.4 |
| 20260510191353 | 66 | 225 | 3.0 | 6.0 | 0.00 | 0.00 | 0.00 | 34 | 1017.5 |
| 20260510190850 | 67 | 312 | 2.0 | 5.0 | 0.00 | 0.00 | 0.00 | 34 | 1017.5 |
| 20260510190348 | 66 | 0 | 0.0 | 5.0 | 0.00 | 0.00 | 0.00 | 34 | 1017.3 |
| 20260510185844 | 66 | 33 | 2.0 | 8.0 | 0.00 | 0.00 | 0.00 | 36 | 1017.1 |
| 20260510185342 | 65 | 195 | 4.0 | 4.0 | 0.00 | 0.00 | 0.00 | 35 | 1017.2 |
| 20260510184839 | 66 | 312 | 2.0 | 6.0 | 0.00 | 0.00 | 0.00 | 38 | 1017.1 |
| 20260510184336 | 65 | 75 | 0.0 | 7.0 | 0.00 | 0.00 | 0.00 | 36 | 1017.2 |
| 20260510183830 | 66 | 336 | 2.0 | 4.0 | 0.00 | 0.00 | 0.00 | 37 | 1017.3 |
| 20260510183326 | 66 | 252 | 0.0 | 9.0 | 0.00 | 0.00 | 0.00 | 33 | 1017.4 |
| 20260510182822 | 66 | 38 | 2.0 | 4.0 | 0.00 | 0.00 | 0.00 | 36 | 1017.2 |
| 20260510182318 | 66 | 233 | 0.0 | 4.0 | 0.00 | 0.00 | 0.00 | 36 | 1017.3 |
| 20260510181814 | 66 | 332 | 5.0 | 6.0 | 0.00 | 0.00 | 0.00 | 35 | 1017.3 |
| 20260510181312 | 65 | 341 | 2.0 | 6.0 | 0.00 | 0.00 | 0.00 | 35 | 1017.2 |
| 20260510180808 | 66 | 81 | 0.0 | 3.0 | 0.00 | 0.00 | 0.00 | 35 | 1017.4 |
| 20260510180305 | 65 | 225 | 2.0 | 7.0 | 0.00 | 0.00 | 0.00 | 38 | 1017.4 |
| 20260510175802 | 66 | 331 | 0.0 | 3.0 | 0.00 | 0.00 | 0.00 | 39 | 1017.5 |
| 20260510175257 | 64 | 332 | 2.0 | 3.0 | 0.00 | 0.00 | 0.00 | 36 | 1017.2 |
| 20260510174754 | 64 | 252 | 9.0 | 9.0 | 0.00 | 0.00 | 0.00 | 37 | 1017.5 |
| 20260510174252 | 66 | 254 | 0.0 | 4.0 | 0.00 | 0.00 | 0.00 | 34 | 1017.5 |
| 20260510173748 | 65 | 23 | 0.0 | 3.0 | 0.00 | 0.00 | 0.00 | 40 | 1017.4 |
| 20260510173243 | 64 | 69 | 1.0 | 5.0 | 0.00 | 0.00 | 0.00 | 37 | 1017.7 |
| 20260510172739 | 65 | 260 | 0.0 | 6.0 | 0.00 | 0.00 | 0.00 | 36 | 1017.7 |
| 20260510172235 | 64 | 15 | 0.0 | 5.0 | 0.00 | 0.00 | 0.00 | 37 | 1017.7 |
| 20260510171732 | 65 | 63 | 1.0 | 4.0 | 0.00 | 0.00 | 0.00 | 39 | 1017.6 |
| 20260510171230 | 64 | 337 | 0.0 | 3.0 | 0.00 | 0.00 | 0.00 | 37 | 1018.0 |
| 20260510170727 | 64 | 287 | 0.0 | 5.0 | 0.00 | 0.00 | 0.00 | 35 | 1018.0 |
| 20260510170223 | 64 | 37 | 2.0 | 5.0 | 0.00 | 0.00 | 0.00 | 37 | 1017.9 |
| 20260510165718 | 64 | 276 | 0.0 | 3.0 | 0.00 | 0.00 | 0.00 | 34 | 1017.9 |
| 20260510165215 | 65 | 75 | 1.0 | 4.0 | 0.00 | 0.00 | 0.00 | 36 | 1017.8 |
| 20260510164712 | 64 | 90 | 1.0 | 4.0 | 0.00 | 0.00 | 0.00 | 44 | 1017.9 |
| 20260510164210 | 64 | 63 | 2.0 | 3.0 | 0.00 | 0.00 | 0.00 | 37 | 1018.1 |
| 20260510163705 | 63 | 90 | 2.0 | 8.0 | 0.00 | 0.00 | 0.00 | 39 | 1017.9 |
| 20260510163201 | 63 | 203 | 0.0 | 5.0 | 0.00 | 0.00 | 0.00 | 36 | 1018.0 |
| 20260510162700 | 63 | 69 | 1.0 | 5.0 | 0.00 | 0.00 | 0.00 | 38 | 1017.5 |
| 20260510162157 | 64 | 311 | 2.0 | 6.0 | 0.00 | 0.00 | 0.00 | 39 | 1017.7 |
| 20260510161653 | 64 | 74 | 3.0 | 7.0 | 0.00 | 0.00 | 0.00 | 36 | 1017.4 |
| 20260510161150 | 64 | 74 | 0.0 | 3.0 | 0.00 | 0.00 | 0.00 | 37 | 1017.6 |
| 20260510160647 | 64 | 108 | 2.0 | 5.0 | 0.00 | 0.00 | 0.00 | 36 | 1017.4 |
| 20260510160142 | 64 | 41 | 0.0 | 4.0 | 0.00 | 0.00 | 0.00 | 38 | 1017.1 |
| 20260510155638 | 63 | 87 | 3.0 | 3.0 | 0.00 | 0.00 | 0.00 | 40 | 1017.2 |
| 20260510155134 | 63 | 264 | 4.0 | 5.0 | 0.00 | 0.00 | 0.00 | 38 | 1017.1 |
| 20260510154630 | 63 | 212 | 2.0 | 3.0 | 0.00 | 0.00 | 0.00 | 35 | 1017.1 |
| 20260510154126 | 62 | 90 | 0.0 | 2.0 | 0.00 | 0.00 | 0.00 | 42 | 1017.1 |
| 20260510153621 | 62 | 94 | 2.0 | 4.0 | 0.00 | 0.00 | 0.00 | 46 | 1017.0 |
| 20260510153118 | 61 | 66 | 1.0 | 3.0 | 0.00 | 0.00 | 0.00 | 42 | 1017.0 |
| 20260510152615 | 62 | 67 | 2.0 | 3.0 | 0.00 | 0.00 | 0.00 | 45 | 1017.0 |
| 20260510152111 | 61 | 225 | 2.0 | 3.0 | 0.00 | 0.00 | 0.00 | 38 | 1016.8 |
| 20260510151607 | 60 | 90 | 0.0 | 3.0 | 0.00 | 0.00 | 0.00 | 41 | 1017.0 |
| 20260510151105 | 60 | 168 | 0.0 | 4.0 | 0.00 | 0.00 | 0.00 | 45 | 1017.2 |
| 20260510150600 | 61 | 180 | 2.0 | 2.0 | 0.00 | 0.00 | 0.00 | 42 | 1017.2 |
| 20260510150056 | 60 | 180 | 0.0 | 3.0 | 0.00 | 0.00 | 0.00 | 41 | 1017.3 |
| 20260510145553 | 59 | 83 | 0.0 | 5.0 | 0.00 | 0.00 | 0.00 | 47 | 1017.3 |
| 20260510145049 | 59 | 199 | 5.0 | 6.0 | 0.00 | 0.00 | 0.00 | 47 | 1017.2 |
| 20260510144546 | 59 | 126 | 0.0 | 7.0 | 0.00 | 0.00 | 0.00 | 51 | 1017.3 |
| 20260510144042 | 58 | 190 | 4.0 | 9.0 | 0.00 | 0.00 | 0.00 | 48 | 1017.0 |
| 20260510143537 | 58 | 197 | 4.0 | 4.0 | 0.00 | 0.00 | 0.00 | 47 | 1017.2 |
| 20260510143034 | 59 | 193 | 3.0 | 5.0 | 0.00 | 0.00 | 0.00 | 48 | 1017.2 |
| 20260510142531 | 58 | 218 | 3.0 | 6.0 | 0.00 | 0.00 | 0.00 | 47 | 1017.3 |
| 20260510142027 | 60 | 86 | 3.0 | 3.0 | 0.00 | 0.00 | 0.00 | 45 | 1017.4 |
| 20260510141524 | 60 | 90 | 0.0 | 2.0 | 0.00 | 0.00 | 0.00 | 46 | 1017.2 |
| 20260510141022 | 60 | 90 | 0.0 | 4.0 | 0.00 | 0.00 | 0.00 | 46 | 1017.3 |
| 20260510140517 | 59 | 85 | 2.0 | 5.0 | 0.00 | 0.00 | 0.00 | 45 | 1017.0 |
| 20260510140012 | 58 | 261 | 2.0 | 5.0 | 0.00 | 0.00 | 0.00 | 46 | 1017.0 |
| 20260510135508 | 60 | 85 | 4.0 | 4.0 | 0.00 | 0.00 | 0.00 | 50 | 1017.2 |
| 20260510135004 | 58 | 90 | 2.0 | 5.0 | 0.00 | 0.00 | 0.00 | 45 | 1016.8 |
| 20260510134502 | 58 | 69 | 1.0 | 6.0 | 0.00 | 0.00 | 0.00 | 45 | 1016.9 |
| 20260510133958 | 58 | 84 | 2.0 | 7.0 | 0.00 | 0.00 | 0.00 | 45 | 1016.8 |
| 20260510133454 | 58 | 87 | 3.0 | 6.0 | 0.00 | 0.00 | 0.00 | 44 | 1016.8 |
| 20260510132950 | 59 | 117 | 1.0 | 3.0 | 0.00 | 0.00 | 0.00 | 44 | 1016.6 |
| 20260510132447 | 59 | 90 | 0.0 | 3.0 | 0.00 | 0.00 | 0.00 | 43 | 1016.7 |
| 20260510131944 | 58 | 106 | 1.0 | 5.0 | 0.00 | 0.00 | 0.00 | 45 | 1016.7 |
| 20260510131442 | 59 | 83 | 0.0 | 3.0 | 0.00 | 0.00 | 0.00 | 44 | 1016.5 |
| 20260510130939 | 57 | 101 | 3.0 | 5.0 | 0.00 | 0.00 | 0.00 | 46 | 1016.6 |
| 20260510130435 | 58 | 92 | 0.0 | 5.0 | 0.00 | 0.00 | 0.00 | 48 | 1016.8 |
| 20260510125932 | 57 | 74 | 3.0 | 5.0 | 0.00 | 0.00 | 0.00 | 47 | 1016.4 |
| 20260510125428 | 57 | 101 | 3.0 | 3.0 | 0.00 | 0.00 | 0.00 | 50 | 1016.8 |
| 20260510124925 | 57 | 101 | 3.0 | 5.0 | 0.00 | 0.00 | 0.00 | 49 | 1016.4 |
| 20260510124422 | 56 | 83 | 0.0 | 5.0 | 0.00 | 0.00 | 0.00 | 52 | 1016.5 |
| 20260510123918 | 56 | 90 | 3.0 | 4.0 | 0.00 | 0.00 | 0.00 | 53 | 1016.3 |
| 20260510123414 | 55 | 90 | 3.0 | 4.0 | 0.00 | 0.00 | 0.00 | 54 | 1016.2 |
| 20260510122910 | 54 | 94 | 3.0 | 5.0 | 0.00 | 0.00 | 0.00 | 56 | 1016.2 |
| 20260510122405 | 55 | 84 | 3.0 | 3.0 | 0.00 | 0.00 | 0.00 | 57 | 1016.3 |
| 20260510121902 | 54 | 105 | 1.0 | 3.0 | 0.00 | 0.00 | 0.00 | 58 | 1016.1 |
| 20260510121359 | 53 | 71 | 3.0 | 4.0 | 0.00 | 0.00 | 0.00 | 59 | 1016.2 |
| 20260510120856 | 53 | 113 | 2.0 | 5.0 | 0.00 | 0.00 | 0.00 | 59 | 1015.6 |
| 20260510120354 | 53 | 90 | 2.0 | 3.0 | 0.00 | 0.00 | 0.00 | 59 | 1015.4 |
| 20260510115849 | 53 | 106 | 0.0 | 3.0 | 0.00 | 0.00 | 0.00 | 58 | 1015.4 |
| 20260510115346 | 54 | 75 | 1.0 | 2.0 | 0.00 | 0.00 | 0.00 | 58 | 1015.4 |
| 20260510114842 | 53 | 97 | 0.0 | 3.0 | 0.00 | 0.00 | 0.00 | 60 | 1015.4 |
| 20260510114340 | 52 | 90 | 0.0 | 2.0 | 0.00 | 0.00 | 0.00 | 61 | 1015.3 |
| 20260510113839 | 50 | 106 | 2.0 | 2.0 | 0.00 | 0.00 | 0.00 | 63 | 1015.3 |
| 20260510113336 | 48 | 90 | 2.0 | 3.0 | 0.00 | 0.00 | 0.00 | 67 | 1015.3 |
| 20260510112833 | 46 | 96 | 0.0 | 3.0 | 0.00 | 0.00 | 0.00 | 70 | 1015.2 |
| 20260510112330 | 45 | 84 | 0.0 | 3.0 | 0.00 | 0.00 | 0.00 | 71 | 1014.8 |
| 20260510111826 | 45 | 90 | 0.0 | 3.0 | 0.00 | 0.00 | 0.00 | 72 | 1014.9 |
| 20260510111323 | 44 | 106 | 2.0 | 2.0 | 0.00 | 0.00 | 0.00 | 73 | 1015.0 |
| 20260510110822 | 44 | 106 | 0.0 | 2.0 | 0.00 | 0.00 | 0.00 | 74 | 1014.7 |
| 20260510110320 | 43 | 115 | 0.0 | 2.0 | 0.00 | 0.00 | 0.00 | 75 | 1014.6 |
| 20260510105815 | 43 | 98 | 0.0 | 2.0 | 0.00 | 0.00 | 0.00 | 74 | 1014.6 |
| 20260510105310 | 43 | 90 | 0.0 | 2.0 | 0.00 | 0.00 | 0.00 | 74 | 1014.4 |
| 20260510104807 | 43 | 82 | 0.0 | 2.0 | 0.00 | 0.00 | 0.00 | 74 | 1014.3 |
| 20260510104304 | 43 | 96 | 1.0 | 2.0 | 0.00 | 0.00 | 0.00 | 74 | 1014.1 |
| 20260510103800 | 43 | 90 | 0.0 | 2.0 | 0.00 | 0.00 | 0.00 | 74 | 1014.2 |
| 20260510103257 | 43 | 90 | 2.0 | 2.0 | 0.00 | 0.00 | 0.00 | 74 | 1014.1 |
| 20260510102752 | 43 | 97 | 0.0 | 2.0 | 0.00 | 0.00 | 0.00 | 74 | 1014.1 |
| 20260510102248 | 44 | 82 | 0.0 | 3.0 | 0.00 | 0.00 | 0.00 | 74 | 1014.1 |
| 20260510101745 | 44 | 95 | 2.0 | 2.0 | 0.00 | 0.00 | 0.00 | 74 | 1014.1 |
| 20260510101244 | 44 | 90 | 2.0 | 3.0 | 0.00 | 0.00 | 0.00 | 73 | 1013.9 |
| 20260510100740 | 44 | 120 | 0.0 | 2.0 | 0.00 | 0.00 | 0.00 | 73 | 1013.9 |
| 20260510100238 | 44 | 114 | 1.0 | 3.0 | 0.00 | 0.00 | 0.00 | 73 | 1014.0 |
| 20260510095733 | 44 | 82 | 0.0 | 2.0 | 0.00 | 0.00 | 0.00 | 73 | 1013.8 |
| 20260510095228 | 44 | 85 | 0.0 | 3.0 | 0.00 | 0.00 | 0.00 | 73 | 1014.0 |
| 20260510094727 | 45 | 107 | 0.0 | 2.0 | 0.00 | 0.00 | 0.00 | 73 | 1013.8 |
| 20260510094223 | 45 | 79 | 3.0 | 3.0 | 0.00 | 0.00 | 0.00 | 73 | 1013.5 |
| 20260510093719 | 45 | 96 | 1.0 | 3.0 | 0.00 | 0.00 | 0.00 | 73 | 1013.4 |
| 20260510093217 | 45 | 85 | 2.0 | 4.0 | 0.00 | 0.00 | 0.00 | 73 | 1013.4 |
| 20260510092713 | 45 | 109 | 0.0 | 4.0 | 0.00 | 0.00 | 0.00 | 73 | 1013.4 |
| 20260510092208 | 46 | 90 | 3.0 | 4.0 | 0.00 | 0.00 | 0.00 | 73 | 1013.3 |
| 20260510091704 | 45 | 121 | 2.0 | 3.0 | 0.00 | 0.00 | 0.00 | 74 | 1013.1 |
| 20260510091201 | 46 | 90 | 2.0 | 4.0 | 0.00 | 0.00 | 0.00 | 74 | 1013.3 |
| 20260510090658 | 46 | 95 | 2.0 | 3.0 | 0.00 | 0.00 | 0.00 | 75 | 1013.3 |
| 20260510090154 | 46 | 79 | 3.0 | 3.0 | 0.00 | 0.00 | 0.00 | 75 | 1013.2 |
| 20260510085649 | 46 | 90 | 2.0 | 4.0 | 0.00 | 0.00 | 0.00 | 75 | 1013.4 |
| 20260510085144 | 46 | 105 | 0.0 | 3.0 | 0.00 | 0.00 | 0.00 | 76 | 1013.1 |
| 20260510084641 | 46 | 106 | 3.0 | 4.0 | 0.00 | 0.00 | 0.00 | 77 | 1013.3 |
| 20260510084138 | 46 | 85 | 2.0 | 3.0 | 0.00 | 0.00 | 0.00 | 77 | 1013.3 |
| 20260510083634 | 46 | 109 | 1.0 | 3.0 | 0.00 | 0.00 | 0.00 | 79 | 1013.2 |
| 20260510083131 | 46 | 95 | 2.0 | 3.0 | 0.00 | 0.00 | 0.00 | 81 | 1013.1 |
| 20260510082627 | 46 | 96 | 0.0 | 4.0 | 0.00 | 0.00 | 0.00 | 82 | 1013.2 |
| 20260510082124 | 46 | 90 | 2.0 | 3.0 | 0.00 | 0.00 | 0.00 | 82 | 1013.1 |
| 20260510081623 | 46 | 94 | 0.0 | 5.0 | 0.00 | 0.00 | 0.00 | 81 | 1012.9 |
| 20260510081120 | 46 | 108 | 2.0 | 3.0 | 0.00 | 0.00 | 0.00 | 82 | 1012.8 |
| 20260510080619 | 45 | 90 | 2.0 | 3.0 | 0.00 | 0.00 | 0.00 | 83 | 1012.7 |
| 20260510080116 | 46 | 74 | 0.0 | 2.0 | 0.00 | 0.00 | 0.00 | 82 | 1012.5 |
| 20260510075613 | 46 | 90 | 0.0 | 2.0 | 0.00 | 0.00 | 0.00 | 81 | 1012.3 |
| 20260510075111 | 46 | 97 | 1.0 | 2.0 | 0.00 | 0.00 | 0.00 | 82 | 1012.4 |
| 20260510074608 | 46 | 82 | 0.0 | 1.0 | 0.00 | 0.00 | 0.00 | 83 | 1012.1 |
| 20260510074103 | 45 | 74 | 0.0 | 0.0 | 0.00 | 0.00 | 0.00 | 83 | 1012.0 |
| 20260510073559 | 45 | 173 | 0.0 | 0.0 | 0.00 | 0.00 | 0.00 | 84 | 1012.0 |
| 20260510073057 | 44 | 173 | 0.0 | 0.0 | 0.00 | 0.00 | 0.00 | 84 | 1011.9 |
| 20260510072553 | 44 | 173 | 0.0 | 0.0 | 0.00 | 0.00 | 0.00 | 84 | 1011.9 |
| 20260510072049 | 44 | 111 | 0.0 | 0.0 | 0.00 | 0.00 | 0.00 | 84 | 1011.9 |
| 20260510071545 | 44 | 111 | 0.0 | 0.0 | 0.00 | 0.00 | 0.00 | 84 | 1011.7 |
| 20260510071043 | 44 | 111 | 0.0 | 0.0 | 0.00 | 0.00 | 0.00 | 84 | 1011.5 |
| 20260510070540 | 44 | 111 | 0.0 | 0.0 | 0.00 | 0.00 | 0.00 | 84 | 1011.5 |
| 20260510070037 | 44 | 74 | 0.0 | 0.0 | 0.00 | 0.00 | 0.00 | 85 | 1011.4 |
| 20260510065533 | 45 | 0 | 0.0 | 0.0 | 0.00 | 0.00 | 0.00 | 85 | 1011.6 |
| 20260510065029 | 45 | 0 | 0.0 | 1.0 | 0.00 | 0.00 | 0.00 | 86 | 1011.7 |
| 20260510064526 | 45 | 74 | 0.0 | 0.0 | 0.00 | 0.00 | 0.00 | 85 | 1011.4 |
| 20260510064022 | 46 | 74 | 0.0 | 0.0 | 0.00 | 0.00 | 0.00 | 85 | 1011.3 |
| 20260510063519 | 46 | 90 | 0.0 | 1.0 | 0.00 | 0.00 | 0.00 | 85 | 1011.4 |
| 20260510063017 | 45 | 15 | 0.0 | 0.0 | 0.00 | 0.00 | 0.00 | 84 | 1011.5 |
| 20260510062512 | 45 | 66 | 0.0 | 0.0 | 0.00 | 0.00 | 0.00 | 83 | 1011.3 |
| 20260510062007 | 46 | 90 | 0.0 | 0.0 | 0.00 | 0.00 | 0.00 | 82 | 1011.0 |
| 20260510061505 | 46 | 90 | 0.0 | 0.0 | 0.00 | 0.00 | 0.00 | 81 | 1011.2 |
| 20260510061001 | 46 | 90 | 0.0 | 0.0 | 0.00 | 0.00 | 0.00 | 81 | 1011.1 |
| 20260510060458 | 47 | 90 | 0.0 | 0.0 | 0.00 | 0.00 | 0.00 | 80 | 1011.0 |
| 20260510055954 | 46 | 195 | 0.0 | 0.0 | 0.00 | 0.00 | 0.00 | 80 | 1011.1 |
| 20260510055450 | 46 | 195 | 0.0 | 0.0 | 0.00 | 0.00 | 0.00 | 79 | 1010.9 |
| 20260510054948 | 46 | 195 | 0.0 | 0.0 | 0.00 | 0.00 | 0.00 | 79 | 1011.0 |
| 20260510054443 | 47 | 195 | 0.0 | 0.0 | 0.00 | 0.00 | 0.00 | 78 | 1010.8 |
| 20260510053938 | 47 | 195 | 0.0 | 0.0 | 0.00 | 0.00 | 0.00 | 77 | 1010.8 |
| 20260510053434 | 48 | 195 | 0.0 | 0.0 | 0.00 | 0.00 | 0.00 | 77 | 1010.7 |
| 20260510052930 | 48 | 90 | 0.0 | 0.0 | 0.00 | 0.00 | 0.00 | 77 | 1010.8 |
| 20260510052426 | 48 | 90 | 0.0 | 0.0 | 0.00 | 0.00 | 0.00 | 76 | 1010.4 |
| 20260510051923 | 49 | 90 | 0.0 | 0.0 | 0.00 | 0.00 | 0.00 | 76 | 1010.4 |
| 20260510051419 | 48 | 90 | 0.0 | 0.0 | 0.00 | 0.00 | 0.00 | 76 | 1010.4 |
| 20260510050916 | 48 | 90 | 0.0 | 0.0 | 0.00 | 0.00 | 0.00 | 75 | 1010.5 |
| 20260510050412 | 48 | 90 | 0.0 | 0.0 | 0.00 | 0.00 | 0.00 | 74 | 1010.4 |
| 20260510045910 | 49 | 90 | 0.0 | 0.0 | 0.00 | 0.00 | 0.00 | 74 | 1010.5 |
| 20260510045407 | 49 | 90 | 0.0 | 0.0 | 0.00 | 0.00 | 0.00 | 73 | 1010.2 |
| 20260510044903 | 49 | 90 | 0.0 | 0.0 | 0.00 | 0.00 | 0.00 | 73 | 1010.1 |
| 20260510044400 | 50 | 90 | 0.0 | 0.0 | 0.00 | 0.00 | 0.00 | 71 | 1010.2 |
| 20260510043857 | 51 | 90 | 0.0 | 0.0 | 0.00 | 0.00 | 0.00 | 69 | 1010.0 |
| 20260510043353 | 51 | 90 | 0.0 | 0.0 | 0.00 | 0.00 | 0.00 | 68 | 1009.9 |
| 20260510042851 | 52 | 90 | 0.0 | 0.0 | 0.00 | 0.00 | 0.00 | 66 | 1010.1 |
| 20260510042347 | 52 | 90 | 0.0 | 0.0 | 0.00 | 0.00 | 0.00 | 63 | 1009.9 |
| 20260510041843 | 53 | 90 | 0.0 | 0.0 | 0.00 | 0.00 | 0.00 | 61 | 1009.8 |
| 20260510041340 | 54 | 90 | 0.0 | 3.0 | 0.00 | 0.00 | 0.00 | 60 | 1009.6 |
| 20260510040838 | 54 | 98 | 0.0 | 2.0 | 0.00 | 0.00 | 0.00 | 60 | 1009.7 |
| 20260510040334 | 55 | 100 | 0.0 | 2.0 | 0.00 | 0.00 | 0.00 | 59 | 1009.6 |
| 20260510035830 | 55 | 90 | 0.0 | 3.0 | 0.00 | 0.00 | 0.00 | 59 | 1009.3 |
| 20260510035326 | 55 | 90 | 4.0 | 4.0 | 0.00 | 0.00 | 0.00 | 58 | 1009.4 |
| 20260510034822 | 55 | 123 | 0.0 | 3.0 | 0.00 | 0.00 | 0.00 | 59 | 1009.1 |
| 20260510034320 | 55 | 90 | 2.0 | 3.0 | 0.00 | 0.00 | 0.00 | 59 | 1008.9 |
| 20260510033816 | 56 | 90 | 0.0 | 2.0 | 0.00 | 0.00 | 0.00 | 59 | 1008.9 |
| 20260510033313 | 56 | 103 | 0.0 | 1.0 | 0.00 | 0.00 | 0.00 | 58 | 1009.1 |
| 20260510032809 | 57 | 107 | 2.0 | 4.0 | 0.00 | 0.00 | 0.00 | 57 | 1008.5 |
| 20260510032306 | 57 | 88 | 5.0 | 8.0 | 0.00 | 0.00 | 0.00 | 57 | 1008.6 |
| 20260510031802 | 57 | 90 | 2.0 | 4.0 | 0.00 | 0.00 | 0.00 | 59 | 1008.4 |
| 20260510031257 | 57 | 90 | 3.0 | 3.0 | 0.00 | 0.00 | 0.00 | 60 | 1008.4 |
| 20260510030751 | 58 | 123 | 2.0 | 3.0 | 0.00 | 0.00 | 0.00 | 59 | 1008.6 |
| 20260510030248 | 58 | 90 | 2.0 | 3.0 | 0.00 | 0.00 | 0.00 | 57 | 1008.2 |
| 20260510025745 | 58 | 78 | 2.0 | 3.0 | 0.00 | 0.00 | 0.00 | 59 | 1008.4 |
| 20260510025243 | 57 | 90 | 0.0 | 2.0 | 0.00 | 0.00 | 0.00 | 61 | 1007.8 |
| 20260510024740 | 57 | 346 | 0.0 | 0.0 | 0.00 | 0.00 | 0.00 | 65 | 1008.1 |
| 20260510024236 | 57 | 346 | 0.0 | 0.0 | 0.00 | 0.00 | 0.00 | 67 | 1007.9 |
| 20260510023732 | 57 | 346 | 0.0 | 0.0 | 0.00 | 0.00 | 0.00 | 65 | 1007.8 |
| 20260510023224 | 58 | 346 | 0.0 | 0.0 | 0.00 | 0.00 | 0.00 | 63 | 1007.8 |
| 20260510022720 | 59 | 346 | 0.0 | 0.0 | 0.00 | 0.00 | 0.00 | 63 | 1007.9 |
| 20260510022220 | 60 | 346 | 0.0 | 0.0 | 0.00 | 0.00 | 0.00 | 61 | 1007.5 |
| 20260510021715 | 60 | 346 | 0.0 | 0.0 | 0.00 | 0.00 | 0.00 | 60 | 1007.7 |
| 20260510021213 | 61 | 328 | 2.0 | 2.0 | 0.00 | 0.00 | 0.00 | 60 | 1007.5 |
| 20260510020708 | 61 | 345 | 0.0 | 2.0 | 0.00 | 0.00 | 0.00 | 60 | 1007.2 |
| 20260510020203 | 62 | 286 | 0.0 | 2.0 | 0.00 | 0.00 | 0.00 | 59 | 1007.1 |
| 20260510015659 | 62 | 0 | 0.0 | 2.0 | 0.00 | 0.00 | 0.00 | 59 | 1007.0 |
| 20260510015156 | 62 | 278 | 0.0 | 2.0 | 0.00 | 0.00 | 0.00 | 58 | 1006.9 |
| 20260510014656 | 62 | 0 | 0.0 | 2.0 | 0.00 | 0.00 | 0.00 | 58 | 1007.0 |
| 20260510014153 | 63 | 200 | 0.0 | 4.0 | 0.00 | 0.00 | 0.00 | 57 | 1006.9 |
| 20260510013648 | 63 | 340 | 0.0 | 2.0 | 0.00 | 0.00 | 0.00 | 56 | 1006.5 |
| 20260510013144 | 64 | 243 | 0.0 | 3.0 | 0.00 | 0.00 | 0.00 | 56 | 1006.4 |
| 20260510012644 | 64 | 251 | 0.0 | 5.0 | 0.00 | 0.00 | 0.00 | 55 | 1006.2 |
| 20260510012140 | 65 | 337 | 0.0 | 5.0 | 0.00 | 0.00 | 0.00 | 54 | 1006.0 |
| 20260510011635 | 65 | 48 | 2.0 | 4.0 | 0.00 | 0.00 | 0.00 | 54 | 1005.8 |
| 20260510011131 | 65 | 30 | 3.0 | 6.0 | 0.00 | 0.00 | 0.00 | 54 | 1005.9 |
| 20260510010627 | 65 | 216 | 0.0 | 5.0 | 0.00 | 0.00 | 0.00 | 54 | 1005.8 |
| 20260510010124 | 65 | 60 | 0.0 | 4.0 | 0.00 | 0.00 | 0.00 | 54 | 1005.8 |
| 20260510005619 | 66 | 257 | 1.0 | 7.0 | 0.00 | 0.00 | 0.00 | 54 | 1005.8 |
| 20260510005117 | 66 | 82 | 0.0 | 3.0 | 0.00 | 0.00 | 0.00 | 54 | 1005.3 |
| 20260510004615 | 66 | 270 | 2.0 | 3.0 | 0.00 | 0.00 | 0.00 | 53 | 1005.3 |
| 20260510004113 | 67 | 195 | 1.0 | 5.0 | 0.00 | 0.00 | 0.00 | 52 | 1005.3 |
| 20260510003610 | 67 | 135 | 2.0 | 4.0 | 0.00 | 0.00 | 0.00 | 52 | 1005.1 |
| 20260510003106 | 67 | 300 | 0.0 | 6.0 | 0.00 | 0.00 | 0.00 | 51 | 1005.2 |
| 20260510002600 | 68 | 117 | 3.0 | 6.0 | 0.00 | 0.00 | 0.00 | 50 | 1005.0 |
| 20260510002057 | 69 | 250 | 0.0 | 6.0 | 0.00 | 0.00 | 0.00 | 49 | 1005.0 |
| 20260510001555 | 69 | 7 | 1.0 | 8.0 | 0.00 | 0.00 | 0.00 | 48 | 1004.9 |
| 20260510001054 | 70 | 274 | 6.0 | 9.0 | 0.00 | 0.00 | 0.00 | 48 | 1004.7 |
| 20260510000548 | 70 | 90 | 1.0 | 8.0 | 0.00 | 0.00 | 0.00 | 47 | 1004.7 |
| 20260510000046 | 70 | 187 | 1.0 | 11.0 | 0.00 | 0.00 | 0.00 | 47 | 1004.8 |
| 20260509235542 | 69 | 350 | 2.0 | 6.0 | 0.00 | 0.00 | 0.00 | 49 | 1004.7 |
| 20260509235038 | 69 | 263 | 3.0 | 7.0 | 0.00 | 0.00 | 0.00 | 48 | 1004.7 |
| 20260509234534 | 70 | 103 | 5.0 | 9.0 | 0.00 | 0.00 | 0.00 | 46 | 1004.7 |
| 20260509234033 | 69 | 270 | 0.0 | 6.0 | 0.00 | 0.00 | 0.00 | 47 | 1004.7 |
| 20260509233530 | 69 | 262 | 0.0 | 5.0 | 0.00 | 0.00 | 0.00 | 47 | 1004.8 |
| 20260509233027 | 69 | 23 | 1.0 | 7.0 | 0.00 | 0.00 | 0.00 | 47 | 1004.6 |
| 20260509232524 | 69 | 321 | 3.0 | 9.0 | 0.00 | 0.00 | 0.00 | 47 | 1004.6 |
| 20260509232020 | 69 | 9 | 3.0 | 8.0 | 0.00 | 0.00 | 0.00 | 47 | 1004.7 |
| 20260509231517 | 69 | 296 | 0.0 | 6.0 | 0.00 | 0.00 | 0.00 | 47 | 1004.8 |
| 20260509231015 | 69 | 263 | 7.0 | 10.0 | 0.00 | 0.00 | 0.00 | 46 | 1004.6 |
| 20260509230511 | 69 | 12 | 0.0 | 9.0 | 0.00 | 0.00 | 0.00 | 46 | 1004.7 |
| 20260509230008 | 69 | 95 | 2.0 | 6.0 | 0.00 | 0.00 | 0.00 | 46 | 1004.5 |
| 20260509225503 | 69 | 352 | 0.0 | 5.0 | 0.00 | 0.00 | 0.00 | 45 | 1004.3 |
| 20260509224959 | 69 | 262 | 0.0 | 9.0 | 0.00 | 0.00 | 0.00 | 45 | 1004.2 |
| 20260509224455 | 69 | 270 | 4.0 | 6.0 | 0.00 | 0.00 | 0.00 | 45 | 1004.4 |
| 20260509223952 | 69 | 270 | 3.0 | 8.0 | 0.00 | 0.00 | 0.00 | 44 | 1004.4 |
| 20260509223449 | 69 | 52 | 5.0 | 5.0 | 0.00 | 0.00 | 0.00 | 44 | 1004.2 |
| 20260509222946 | 70 | 275 | 5.0 | 7.0 | 0.00 | 0.00 | 0.00 | 44 | 1004.2 |
| 20260509222442 | 70 | 45 | 4.0 | 10.0 | 0.00 | 0.00 | 0.00 | 44 | 1004.2 |
| 20260509221938 | 70 | 227 | 5.0 | 12.0 | 0.00 | 0.00 | 0.00 | 43 | 1004.2 |
| 20260509221434 | 70 | 110 | 2.0 | 7.0 | 0.00 | 0.00 | 0.00 | 43 | 1003.9 |
| 20260509220930 | 70 | 228 | 0.0 | 6.0 | 0.00 | 0.00 | 0.00 | 42 | 1004.0 |
| 20260509220426 | 70 | 68 | 5.0 | 11.0 | 0.00 | 0.00 | 0.00 | 42 | 1003.8 |
| 20260509215923 | 71 | 337 | 0.0 | 11.0 | 0.00 | 0.00 | 0.00 | 42 | 1003.9 |
| 20260509215418 | 71 | 118 | 5.0 | 11.0 | 0.00 | 0.00 | 0.00 | 41 | 1003.7 |
| 20260509214916 | 71 | 346 | 3.0 | 12.0 | 0.00 | 0.00 | 0.00 | 41 | 1003.6 |
| 20260509214413 | 71 | 142 | 3.0 | 9.0 | 0.00 | 0.00 | 0.00 | 40 | 1003.7 |
| 20260509213910 | 72 | 326 | 3.0 | 15.0 | 0.00 | 0.00 | 0.00 | 40 | 1003.8 |
| 20260509213405 | 72 | 184 | 2.0 | 13.0 | 0.00 | 0.00 | 0.00 | 39 | 1003.8 |
| 20260509212903 | 72 | 150 | 6.0 | 11.0 | 0.00 | 0.00 | 0.00 | 40 | 1003.7 |
| 20260509212400 | 72 | 303 | 2.0 | 7.0 | 0.00 | 0.00 | 0.00 | 41 | 1003.7 |
| 20260509211856 | 72 | 202 | 5.0 | 6.0 | 0.00 | 0.00 | 0.00 | 40 | 1003.3 |
| 20260509211352 | 72 | 323 | 3.0 | 8.0 | 0.00 | 0.00 | 0.00 | 40 | 1003.4 |
| 20260509210849 | 72 | 80 | 4.0 | 9.0 | 0.00 | 0.00 | 0.00 | 39 | 1003.2 |
| 20260509210346 | 72 | 230 | 3.0 | 10.0 | 0.00 | 0.00 | 0.00 | 38 | 1003.5 |
| 20260509205846 | 72 | 264 | 3.0 | 9.0 | 0.00 | 0.00 | 0.00 | 38 | 1003.0 |
| 20260509205340 | 72 | 0 | 2.0 | 9.0 | 0.00 | 0.00 | 0.00 | 39 | 1003.2 |
| 20260509204838 | 72 | 270 | 3.0 | 6.0 | 0.00 | 0.00 | 0.00 | 37 | 1003.2 |
| 20260509204334 | 72 | 76 | 3.0 | 13.0 | 0.00 | 0.00 | 0.00 | 37 | 1003.1 |
| 20260509203830 | 73 | 275 | 4.0 | 13.0 | 0.00 | 0.00 | 0.00 | 39 | 1003.1 |
| 20260509203327 | 72 | 229 | 3.0 | 9.0 | 0.00 | 0.00 | 0.00 | 38 | 1003.2 |
| 20260509202823 | 72 | 311 | 0.0 | 9.0 | 0.00 | 0.00 | 0.00 | 36 | 1002.7 |
| 20260509202320 | 72 | 334 | 0.0 | 6.0 | 0.00 | 0.00 | 0.00 | 39 | 1003.2 |
| 20260509201819 | 72 | 120 | 1.0 | 7.0 | 0.00 | 0.00 | 0.00 | 38 | 1003.2 |
| 20260509201316 | 71 | 25 | 3.0 | 7.0 | 0.00 | 0.00 | 0.00 | 38 | 1003.0 |
| 20260509200812 | 70 | 330 | 2.0 | 7.0 | 0.00 | 0.00 | 0.00 | 40 | 1003.2 |
| 20260509200308 | 70 | 196 | 3.0 | 11.0 | 0.00 | 0.00 | 0.00 | 42 | 1003.4 |
| 20260509195804 | 70 | 328 | 3.0 | 16.0 | 0.00 | 0.00 | 0.00 | 43 | 1003.7 |
| 20260509195300 | 72 | 51 | 7.0 | 11.0 | 0.00 | 0.00 | 0.00 | 38 | 1004.0 |
| 20260509194759 | 73 | 328 | 5.0 | 9.0 | 0.00 | 0.00 | 0.00 | 34 | 1003.0 |
| 20260509194255 | 73 | 328 | 4.0 | 9.0 | 0.00 | 0.00 | 0.00 | 35 | 1003.1 |
| 20260509193753 | 74 | 45 | 2.0 | 9.0 | 0.00 | 0.00 | 0.00 | 36 | 1002.7 |
| 20260509193253 | 75 | 247 | 6.0 | 9.0 | 0.00 | 0.00 | 0.00 | 34 | 1003.0 |
| 20260509192749 | 76 | 288 | 4.0 | 8.0 | 0.00 | 0.00 | 0.00 | 35 | 1002.9 |
| 20260509192244 | 76 | 230 | 3.0 | 9.0 | 0.00 | 0.00 | 0.00 | 32 | 1002.6 |